Weather History for White Mountain, AK

Change the Weather History Date:

Friday, January 4, 2013

  Actual Average (PAKK) Record (PAKK)
Temperature  
Mean Temperature 22 °F -  
Max Temperature 28 °F 5 °F 30 °F (2013)
Min Temperature 16 °F -1 °F -34 °F (2012)
Degree Days  
Heating Degree Days 43    
Moisture  
Dew Point 22 °F    
Average Humidity 85    
Maximum Humidity 92    
Minimum Humidity 78    
Precipitation  
Precipitation 0.00 in - - ()
Sea Level Pressure  
Sea Level Pressure 29.59 in    
Wind  
Wind Speed 10 mph (East)    
Max Wind Speed 17 mph    
Max Gust Speed 24 mph    
Visibility 9 miles    
Events Snow    
Averages and records for this station are not official NWS values.
T = Trace of Precipitation, MM = Missing Value Source: NWS Daily Summary

Daily Weather History Graph

Daily Weather History Graph

Search for Another Location

Airport:

Trip Planner

Search our weather history database for the weather conditions in past years. The results will help you decide how hot, cold, wet, or windy it might be!

Date:

Astronomy

Jan. 04, 2013 Rise Set
Actual Time 11:49 AM AKST 4:08 PM AKST
Civil Twilight 10:31 AM AKST 5:27 PM AKST
Nautical Twilight 9:21 AM AKST 6:36 PM AKST
Astronomical Twilight 8:21 AM AKST 7:36 PM AKST
Moon 2:01 AM AKST (1/4) 12:23 PM AKST (1/4)
Length of Visible Light 6h 55m
Length of Day
4h 19m
Waning Gibbous, 53% of the Moon is Illuminated
Jan 4
Waning Gibbous
Jan 4
Last Quarter
Jan 11
New
Jan 18
First Quarter
Jan 26
Full

Hourly Weather History & Observations

Time (AKST) Temp. Windchill Dew Point Humidity Pressure Visibility Wind Dir Wind Speed Gust Speed Precip Events Conditions
12:58 AM 18.0 °F 7.7 °F 16.0 °F 92% 29.51 in 10.0 mi North 8.1 mph - N/A   Partly Cloudy
1:58 AM 18.0 °F 6.9 °F 15.1 °F 88% 29.51 in 10.0 mi NNE 9.2 mph - N/A   Partly Cloudy
3:58 AM 18.0 °F 6.9 °F 16.0 °F 92% 29.53 in 9.0 mi NNE 9.2 mph - N/A   Mostly Cloudy
4:58 AM 16.0 °F 3.6 °F 14.0 °F 92% 29.54 in 10.0 mi North 10.4 mph - N/A   Clear
5:58 AM 18.0 °F 6.9 °F 15.1 °F 88% 29.55 in 10.0 mi North 9.2 mph - N/A   Overcast
6:58 AM 19.0 °F 9.0 °F 16.0 °F 88% 29.56 in 10.0 mi NNE 8.1 mph - N/A   Mostly Cloudy
7:58 AM 21.9 °F 11.7 °F 19.0 °F 89% 29.56 in 10.0 mi East 9.2 mph - N/A   Overcast
8:58 AM 24.1 °F 13.1 °F 21.0 °F 88% 29.57 in 9.0 mi East 11.5 mph - N/A   Overcast
9:58 AM 26.1 °F 16.2 °F 21.9 °F 84% 29.59 in 10.0 mi East 10.4 mph - N/A   Overcast
10:58 AM 28.0 °F 19.3 °F 23.0 °F 81% 29.60 in 10.0 mi East 9.2 mph - N/A   Overcast
11:58 AM 28.0 °F - 23.0 °F 81% 29.62 in 8.0 mi Calm Calm - N/A   Overcast
12:58 PM 28.9 °F 21.9 °F 24.1 °F 82% 29.62 in 8.0 mi East 6.9 mph - N/A   Overcast
1:58 PM 28.9 °F 19.8 °F 23.0 °F 78% 29.64 in 8.0 mi East 10.4 mph - N/A   Overcast
2:58 PM 28.9 °F 19.2 °F 24.1 °F 82% 29.63 in 8.0 mi ESE 11.5 mph - N/A   Overcast
3:58 PM 28.9 °F 18.2 °F 24.1 °F 82% 29.63 in 8.0 mi ESE 13.8 mph - N/A   Overcast
4:58 PM 28.9 °F 19.8 °F 24.1 °F 82% 29.63 in 8.0 mi East 10.4 mph - N/A   Overcast
5:32 PM 28.4 °F 18.0 °F 24.8 °F 86% 29.59 in 8.0 mi East 12.7 mph - 0.00 in Snow Light Snow
5:58 PM 28.9 °F 17.3 °F 25.0 °F 85% 29.63 in 10.0 mi ESE 16.1 mph 21.9 mph 0.00 in   Overcast
6:13 PM 28.4 °F 17.5 °F 24.8 °F 86% 29.59 in 10.0 mi ESE 13.8 mph 20.7 mph N/A   Mostly Cloudy
6:20 PM 28.4 °F 17.0 °F 24.8 °F 86% 29.59 in 10.0 mi East 15.0 mph 23.0 mph N/A   Mostly Cloudy
6:58 PM 28.0 °F 18.1 °F 25.0 °F 88% 29.62 in 10.0 mi East 11.5 mph - N/A   Mostly Cloudy
9:58 PM 28.9 °F 17.7 °F 24.1 °F 82% 29.61 in 9.0 mi East 15.0 mph - 0.00 in Snow Light Snow
10:58 PM 28.9 °F 16.9 °F 24.1 °F 82% 29.60 in 9.0 mi East 17.3 mph 24.2 mph 0.00 in   Scattered Clouds
11:58 PM 28.9 °F 18.2 °F 24.1 °F 82% 29.60 in 9.0 mi East 13.8 mph - N/A   Overcast